FW0896 Weather Reports


Display with metric or nautical units.
time (UTC)temp
F
wind
direction
speed
MPH
gust
MPH
rain 1hr
in
rain 24hr
in
rain mn
in
humidity
%
barometer
mb
20260507103023 37 52 2.0 4.0 0.00 0.00 0.00 67 1013.9
20260507101522 37 43 3.0 5.0 0.00 0.00 0.00 67 1014.1
20260507100020 36 44 3.0 5.0 0.00 0.00 0.00 69 1014.2
20260507094518 37 58 1.0 3.0 0.00 0.00 0.00 66 1014.3
20260507093021 37 144 2.0 3.0 0.00 0.00 0.00 66 1014.1
20260507091525 38 148 2.0 3.0 0.00 0.00 0.00 66 1014.1
20260507090018 38 148 1.0 3.0 0.00 0.00 0.00 66 1014.4
20260507084522 38 148 0.0 3.0 0.00 0.00 0.00 69 1014.6
20260507083012 38 148 0.0 2.0 0.00 0.00 0.00 73 1014.7
20260507081519 38 143 0.0 2.0 0.00 0.00 0.00 66 1014.9
20260507080007 38 103 1.0 3.0 0.00 0.00 0.00 67 1015.0
20260507074505 38 96 0.0 3.0 0.00 0.00 0.00 67 1015.4
20260507073007 38 84 2.0 3.0 0.00 0.00 0.00 65 1015.5
20260507071503 38 77 0.0 0.0 0.00 0.00 0.00 65 1015.7
20260507070002 37 85 0.0 0.0 0.00 0.00 0.00 65 1015.7
20260507064501 37 97 0.0 0.0 0.00 0.00 0.00 65 1015.7
20260507063101 38 98 1.0 3.0 0.00 0.00 0.00 64 1015.6
20260507061604 38 97 1.0 3.0 0.00 0.00 0.00 64 1015.7
20260507054604 38 97 0.0 0.0 0.00 0.00 0.00 62 1015.7
20260507053100 38 97 0.0 0.0 0.00 0.00 0.00 63 1015.8
20260507051555 38 97 0.0 2.0 0.00 0.00 0.00 63 1015.8
20260507050051 37 97 1.0 3.0 0.00 0.00 0.00 62 1015.8
20260507044559 38 97 0.0 2.0 0.00 0.00 0.00 61 1015.9
20260507043151 38 97 2.0 3.0 0.00 0.00 0.00 59 1016.0
20260507041551 38 94 2.0 3.0 0.00 0.00 0.00 59 1016.0
20260507040049 39 94 0.0 3.0 0.00 0.00 0.00 60 1016.0
20260507034553 41 94 2.0 4.0 0.00 0.00 0.00 57 1016.0
20260507033048 42 94 1.0 4.0 0.00 0.00 0.00 56 1016.2
20260507031548 41 51 1.0 4.0 0.00 0.00 0.00 55 1016.4
20260507030053 42 43 3.0 5.0 0.00 0.00 0.00 53 1016.6
20260507024553 42 38 3.0 5.0 0.00 0.00 0.00 53 1016.7
20260507023046 42 34 3.0 5.0 0.00 0.00 0.00 53 1016.7
20260507021545 43 13 2.0 4.0 0.00 0.00 0.00 53 1016.6
20260507020050 43 1 2.0 4.0 0.00 0.00 0.00 52 1016.4
20260507014545 43 342 1.0 3.0 0.00 0.00 0.00 52 1016.4
20260507013056 44 342 2.0 4.0 0.00 0.00 0.00 50 1016.3
20260507011545 45 342 2.0 4.0 0.00 0.00 0.00 49 1016.4
20260507010045 46 340 2.0 6.0 0.00 0.00 0.00 48 1016.3
20260507004542 47 336 6.0 8.0 0.00 0.00 0.00 48 1016.4
20260507003044 47 340 3.0 10.0 0.00 0.00 0.00 48 1016.5
20260507001543 48 319 6.0 11.0 0.00 0.00 0.00 47 1016.3
20260507000046 48 326 8.0 12.0 0.00 0.00 0.00 46 1016.4
20260506234542 48 333 8.0 13.0 0.00 0.00 0.00 46 1016.5
20260506233040 48 303 7.0 12.0 0.00 0.00 0.00 47 1016.6
20260506231544 48 292 5.0 12.0 0.00 0.00 0.00 47 1016.6
20260506230038 48 290 8.0 15.0 0.00 0.00 0.00 46 1016.7
20260506224547 48 323 10.0 16.0 0.00 0.00 0.00 46 1016.6
20260506223038 48 323 7.0 10.0 0.00 0.00 0.00 47 1016.8
20260506221537 47 333 7.0 12.0 0.00 0.00 0.00 47 1016.9
20260506220038 48 335 8.0 14.0 0.00 0.00 0.00 47 1017.1
20260506214535 47 297 9.0 12.0 0.00 0.00 0.00 47 1017.1
20260506213037 47 335 9.0 12.0 0.00 0.00 0.00 48 1017.2
20260506211534 48 318 8.0 13.0 0.00 0.00 0.00 48 1017.3
20260506210037 47 324 9.0 16.0 0.00 0.00 0.00 47 1017.6
20260506204530 47 298 10.0 17.0 0.00 0.00 0.00 48 1017.6
20260506203032 46 324 5.0 15.0 0.00 0.00 0.00 48 1017.8
20260506201528 45 300 6.0 14.0 0.00 0.00 0.00 49 1018.0
20260506200027 45 326 7.0 13.0 0.00 0.00 0.00 49 1018.1
20260506194525 44 309 6.0 14.0 0.00 0.00 0.00 51 1018.1
20260506193024 44 344 10.0 14.0 0.00 0.00 0.00 51 1018.1
20260506191525 44 295 7.0 12.0 0.00 0.00 0.00 51 1018.2
20260506190021 44 340 9.0 13.0 0.00 0.00 0.00 54 1018.3
20260506184526 43 317 10.0 16.0 0.00 0.00 0.00 54 1018.4
20260506183018 43 327 6.0 11.0 0.00 0.00 0.00 54 1018.4
20260506181516 42 294 8.0 13.0 0.00 0.00 0.00 54 1018.5
20260506180023 41 306 7.0 14.0 0.00 0.00 0.00 55 1018.7
20260506174513 41 296 7.0 11.0 0.00 0.00 0.00 54 1018.7
20260506173013 41 338 5.0 10.0 0.00 0.00 0.00 55 1018.8
20260506171513 41 308 8.0 12.0 0.00 0.00 0.00 55 1018.8
20260506170015 41 297 8.0 20.0 0.00 0.00 0.00 55 1018.7
20260506164515 40 335 7.0 13.0 0.00 0.00 0.00 56 1018.7
20260506163011 40 338 8.0 14.0 0.00 0.00 0.00 55 1018.7
20260506161511 41 302 6.0 11.0 0.00 0.00 0.00 56 1018.7
20260506160007 41 328 8.0 11.0 0.00 0.00 0.00 56 1018.7
20260506154506 40 333 8.0 15.0 0.00 0.00 0.00 55 1018.6
20260506153003 40 318 6.0 12.0 0.00 0.00 0.00 59 1018.4
20260506151501 40 350 7.0 11.0 0.00 0.00 0.00 60 1018.3
20260506144604 40 283 6.0 8.0 0.00 0.00 0.00 60 1018.3
20260506143059 40 281 4.0 7.0 0.00 0.00 0.00 60 1018.3
20260506141603 39 278 4.0 6.0 0.00 0.00 0.00 60 1018.4
20260506140109 39 297 3.0 5.0 0.00 0.00 0.00 61 1018.3
20260506134557 38 285 3.0 5.0 0.00 0.00 0.00 62 1018.3
20260506133102 37 289 3.0 5.0 0.00 0.00 0.00 66 1018.1
20260506131552 37 294 3.0 5.0 0.00 0.00 0.00 68 1018.2
20260506130050 36 297 3.0 4.0 0.00 0.00 0.00 69 1017.9
20260506124549 36 290 3.0 4.0 0.00 0.00 0.00 70 1017.8
20260506123048 35 295 2.0 4.0 0.00 0.00 0.00 71 1017.7
20260506121547 34 298 2.0 4.0 0.00 0.00 0.00 73 1017.7
20260506120048 33 311 2.0 4.0 0.00 0.00 0.00 73 1017.4
20260506114542 32 319 2.0 3.0 0.00 0.00 0.00 74 1017.1
20260506113047 32 334 2.0 3.0 0.00 0.00 0.00 73 1016.9
20260506111542 32 334 2.0 3.0 0.00 0.00 0.00 72 1016.6
20260506110040 32 335 2.0 3.0 0.00 0.00 0.00 71 1016.4
20260506104545 32 335 2.0 4.0 0.00 0.00 0.00 71 1016.2